| time (UTC) | temp F | wind direction | speed MPH | gust MPH | rain 1hr in | rain 24hr in | rain mn in | humidity % | barometer mb |
| 20260904153355 | 86 | 230 | 14.0 | 0.0 | 0.00 | 0.00 | 0.00 | 33 | 1015.0 |
| 20260904151854 | 86 | 230 | 14.0 | 0.0 | 0.00 | 0.00 | 0.00 | 33 | 1015.0 |
| 20260904150355 | 86 | 230 | 14.0 | 0.0 | 0.00 | 0.00 | 0.00 | 33 | 1015.0 |
| 20260904144854 | 86 | 260 | 7.0 | 0.0 | 0.00 | 0.00 | 0.00 | 31 | 1015.0 |
| 20260904143354 | 86 | 260 | 7.0 | 0.0 | 0.00 | 0.00 | 0.00 | 31 | 1015.0 |
| 20260904141850 | 86 | 260 | 7.0 | 0.0 | 0.00 | 0.00 | 0.00 | 31 | 1015.0 |
| 20260904140403 | 86 | 260 | 7.0 | 0.0 | 0.00 | 0.00 | 0.00 | 31 | 1015.0 |
| 20260904134854 | 86 | 240 | 9.0 | 0.0 | 0.00 | 0.00 | 0.00 | 29 | 1015.0 |
| 20260904133354 | 86 | 240 | 9.0 | 0.0 | 0.00 | 0.00 | 0.00 | 29 | 1015.0 |
| 20260904131853 | 86 | 240 | 9.0 | 0.0 | 0.00 | 0.00 | 0.00 | 29 | 1015.0 |
| 20260904130354 | 86 | 240 | 9.0 | 0.0 | 0.00 | 0.00 | 0.00 | 29 | 1015.0 |
| 20260904124853 | 86 | 230 | 9.0 | 0.0 | 0.00 | 0.00 | 0.00 | 29 | 1016.0 |
| 20260904123353 | 86 | 230 | 9.0 | 0.0 | 0.00 | 0.00 | 0.00 | 29 | 1016.0 |
| 20260904121855 | 86 | 230 | 9.0 | 0.0 | 0.00 | 0.00 | 0.00 | 29 | 1016.0 |
| 20260904120354 | 86 | 230 | 9.0 | 0.0 | 0.00 | 0.00 | 0.00 | 29 | 1016.0 |
| 20260904114854 | 84 | 260 | 5.0 | 0.0 | 0.00 | 0.00 | 0.00 | 33 | 1016.0 |
| 20260904113354 | 84 | 260 | 5.0 | 0.0 | 0.00 | 0.00 | 0.00 | 33 | 1016.0 |
| 20260904111851 | 84 | 260 | 5.0 | 0.0 | 0.00 | 0.00 | 0.00 | 33 | 1016.0 |
| 20260904110516 | 0 | 0.0 | 0.0 | 0.00 | 0.00 | 0.00 | |||
| 20260904104942 | 0 | 0.0 | 0.0 | 0.00 | 0.00 | 0.00 | |||
| 20260904103505 | 0 | 0.0 | 0.0 | 0.00 | 0.00 | 0.00 | |||
| 20260904101859 | 82 | 260 | 9.0 | 0.0 | 0.00 | 0.00 | 0.00 | 37 | 1017.0 |
| 20260904100400 | 82 | 260 | 9.0 | 0.0 | 0.00 | 0.00 | 0.00 | 37 | 1017.0 |
| 20260904094851 | 81 | 3.0 | 0.0 | 0.00 | 0.00 | 0.00 | 39 | 1017.0 | |
| 20260904093354 | 81 | 3.0 | 0.0 | 0.00 | 0.00 | 0.00 | 39 | 1017.0 | |
| 20260904091853 | 81 | 3.0 | 0.0 | 0.00 | 0.00 | 0.00 | 39 | 1017.0 | |
| 20260904090353 | 81 | 3.0 | 0.0 | 0.00 | 0.00 | 0.00 | 39 | 1017.0 | |
| 20260904084854 | 77 | 250 | 7.0 | 0.0 | 0.00 | 0.00 | 0.00 | 44 | 1012.0 |
| 20260904083354 | 77 | 250 | 7.0 | 0.0 | 0.00 | 0.00 | 0.00 | 44 | 1012.0 |
| 20260904081856 | 77 | 250 | 7.0 | 0.0 | 0.00 | 0.00 | 0.00 | 44 | 1012.0 |
| 20260904080355 | 77 | 250 | 7.0 | 0.0 | 0.00 | 0.00 | 0.00 | 44 | 1012.0 |
| 20260904075014 | 0 | 0.0 | 0.0 | 0.00 | 0.00 | 0.00 | |||
| 20260904073354 | 75 | 50 | 7.0 | 0.0 | 0.00 | 0.00 | 0.00 | 50 | 1017.0 |
| 20260904071853 | 75 | 50 | 7.0 | 0.0 | 0.00 | 0.00 | 0.00 | 50 | 1017.0 |
| 20260904070354 | 75 | 50 | 7.0 | 0.0 | 0.00 | 0.00 | 0.00 | 50 | 1017.0 |
| 20260904064853 | 70 | 70 | 7.0 | 0.0 | 0.00 | 0.00 | 0.00 | 60 | 1017.0 |
| 20260904063354 | 70 | 70 | 7.0 | 0.0 | 0.00 | 0.00 | 0.00 | 60 | 1017.0 |
| 20260904061855 | 70 | 70 | 7.0 | 0.0 | 0.00 | 0.00 | 0.00 | 60 | 1017.0 |
| 20260904060354 | 70 | 70 | 7.0 | 0.0 | 0.00 | 0.00 | 0.00 | 60 | 1017.0 |
| 20260904054854 | 66 | 270 | 7.0 | 0.0 | 0.00 | 0.00 | 0.00 | 68 | 1017.0 |
| 20260904053354 | 66 | 270 | 7.0 | 0.0 | 0.00 | 0.00 | 0.00 | 68 | 1017.0 |
| 20260904051854 | 66 | 270 | 7.0 | 0.0 | 0.00 | 0.00 | 0.00 | 68 | 1017.0 |
| 20260904050354 | 66 | 270 | 7.0 | 0.0 | 0.00 | 0.00 | 0.00 | 68 | 1017.0 |
| 20260904044854 | 57 | 310 | 7.0 | 0.0 | 0.00 | 0.00 | 0.00 | 88 | 1017.0 |
| 20260904043354 | 57 | 310 | 7.0 | 0.0 | 0.00 | 0.00 | 0.00 | 88 | 1017.0 |
| 20260904041851 | 57 | 310 | 7.0 | 0.0 | 0.00 | 0.00 | 0.00 | 88 | 1017.0 |
| 20260904040353 | 57 | 310 | 7.0 | 0.0 | 0.00 | 0.00 | 0.00 | 88 | 1017.0 |
| 20260904034850 | 59 | 320 | 7.0 | 0.0 | 0.00 | 0.00 | 0.00 | 82 | 1016.0 |
| 20260904033354 | 59 | 320 | 7.0 | 0.0 | 0.00 | 0.00 | 0.00 | 82 | 1016.0 |
| 20260904031854 | 59 | 320 | 7.0 | 0.0 | 0.00 | 0.00 | 0.00 | 82 | 1016.0 |
| 20260904030353 | 59 | 320 | 7.0 | 0.0 | 0.00 | 0.00 | 0.00 | 82 | 1016.0 |
| 20260904024848 | 61 | 330 | 7.0 | 0.0 | 0.00 | 0.00 | 0.00 | 83 | 1016.0 |
| 20260904023354 | 0 | 0.0 | 0.0 | 0.00 | 0.00 | 0.00 | |||
| 20260904021850 | 0 | 0.0 | 0.0 | 0.00 | 0.00 | 0.00 | |||
| 20260904020354 | 0 | 0.0 | 0.0 | 0.00 | 0.00 | 0.00 | |||
| 20260904014927 | 0 | 0.0 | 0.0 | 0.00 | 0.00 | 0.00 | |||
| 20260904013354 | 0 | 0.0 | 0.0 | 0.00 | 0.00 | 0.00 | |||
| 20260904011854 | 0 | 0.0 | 0.0 | 0.00 | 0.00 | 0.00 | |||
| 20260904010354 | 0 | 0.0 | 0.0 | 0.00 | 0.00 | 0.00 | |||
| 20260904004852 | 63 | 330 | 7.0 | 0.0 | 0.00 | 0.00 | 0.00 | 73 | 1016.0 |
| 20260904003354 | 63 | 330 | 7.0 | 0.0 | 0.00 | 0.00 | 0.00 | 73 | 1016.0 |
| 20260904001853 | 63 | 330 | 7.0 | 0.0 | 0.00 | 0.00 | 0.00 | 73 | 1016.0 |
| 20260904000355 | 63 | 330 | 7.0 | 0.0 | 0.00 | 0.00 | 0.00 | 73 | 1016.0 |
| 20260903234854 | 0 | 0.0 | 0.0 | 0.00 | 0.00 | 0.00 | |||
| 20260903233353 | 0 | 0.0 | 0.0 | 0.00 | 0.00 | 0.00 | |||
| 20260903231916 | 0 | 0.0 | 0.0 | 0.00 | 0.00 | 0.00 | |||
| 20260903230351 | 0 | 0.0 | 0.0 | 0.00 | 0.00 | 0.00 | |||
| 20260903224851 | 0 | 0.0 | 0.0 | 0.00 | 0.00 | 0.00 | |||
| 20260903223353 | 0 | 0.0 | 0.0 | 0.00 | 0.00 | 0.00 | |||
| 20260903221854 | 0 | 0.0 | 0.0 | 0.00 | 0.00 | 0.00 | |||
| 20260903220354 | 0 | 0.0 | 0.0 | 0.00 | 0.00 | 0.00 | |||
| 20260903214853 | 66 | 340 | 7.0 | 0.0 | 0.00 | 0.00 | 0.00 | 68 | 1017.0 |
| 20260903213402 | 66 | 340 | 7.0 | 0.0 | 0.00 | 0.00 | 0.00 | 68 | 1017.0 |
| 20260903211857 | 66 | 340 | 7.0 | 0.0 | 0.00 | 0.00 | 0.00 | 68 | 1017.0 |
| 20260903210355 | 66 | 340 | 7.0 | 0.0 | 0.00 | 0.00 | 0.00 | 68 | 1017.0 |
| 20260903205011 | 0 | 0.0 | 0.0 | 0.00 | 0.00 | 0.00 | |||
| 20260903203354 | 68 | 330 | 9.0 | 0.0 | 0.00 | 0.00 | 0.00 | 64 | 1016.0 |
| 20260903201854 | 68 | 330 | 9.0 | 0.0 | 0.00 | 0.00 | 0.00 | 64 | 1016.0 |
| 20260903200354 | 68 | 330 | 9.0 | 0.0 | 0.00 | 0.00 | 0.00 | 64 | 1016.0 |
| 20260903194854 | 68 | 330 | 9.0 | 0.0 | 0.00 | 0.00 | 0.00 | 64 | 1016.0 |
| 20260903193355 | 68 | 350 | 9.0 | 0.0 | 0.00 | 0.00 | 0.00 | 60 | 1017.0 |
| 20260903191853 | 68 | 350 | 9.0 | 0.0 | 0.00 | 0.00 | 0.00 | 60 | 1017.0 |
| 20260903190354 | 68 | 350 | 9.0 | 0.0 | 0.00 | 0.00 | 0.00 | 60 | 1017.0 |
| 20260903184854 | 70 | 340 | 7.0 | 0.0 | 0.00 | 0.00 | 0.00 | 60 | 1016.0 |
| 20260903183355 | 70 | 340 | 7.0 | 0.0 | 0.00 | 0.00 | 0.00 | 60 | 1016.0 |
| 20260903181853 | 70 | 340 | 7.0 | 0.0 | 0.00 | 0.00 | 0.00 | 60 | 1016.0 |
| 20260903180353 | 70 | 340 | 7.0 | 0.0 | 0.00 | 0.00 | 0.00 | 60 | 1016.0 |
| 20260903174854 | 77 | 30 | 3.0 | 0.0 | 0.00 | 0.00 | 0.00 | 44 | 1016.0 |
| 20260903173355 | 77 | 30 | 3.0 | 0.0 | 0.00 | 0.00 | 0.00 | 44 | 1016.0 |
| 20260903171855 | 77 | 30 | 3.0 | 0.0 | 0.00 | 0.00 | 0.00 | 44 | 1016.0 |
| 20260903170354 | 0 | 0.0 | 0.0 | 0.00 | 0.00 | 0.00 | |||
| 20260903164854 | 82 | 60 | 7.0 | 0.0 | 0.00 | 0.00 | 0.00 | 37 | 1016.0 |
| 20260903163354 | 82 | 60 | 7.0 | 0.0 | 0.00 | 0.00 | 0.00 | 37 | 1016.0 |
| 20260903161854 | 82 | 60 | 7.0 | 0.0 | 0.00 | 0.00 | 0.00 | 37 | 1016.0 |
| 20260903160355 | 82 | 60 | 7.0 | 0.0 | 0.00 | 0.00 | 0.00 | 37 | 1016.0 |
| 20260903154855 | 82 | 20 | 7.0 | 0.0 | 0.00 | 0.00 | 0.00 | 37 | 1016.0 |